O3b星座 FM4星 (O3B FM4)

导读

O3B FM4是O3b卫星星座第一代FM系列的中轨道通信卫星,于2013年6月25日发射,目前仍在轨运行,运行在高度约8060公里的近赤道中地球轨道,轨道周期约288分钟。该卫星由SES公司运营,工作在Ka频段,旨在为全球偏远地区、海洋航运等提供低延迟、高带宽的互联网接入服务,助力缩小数字鸿沟。

基本信息
目录编号:
39189
目录名称:
O3B FM4
国际标识:
2013-031B
轨道中心:
EARTH
卫星名称:
O3b星座 FM4星
卫星全名:
O3b星座 FM4星 (O3B FM4)
卫星状态:
在轨 (已飞行4735 天)
发射日期:
2013-06-25 UTC
国别 :
(O3B)
星等 :
--
轨道信息
数据来源 国际轨道数据 AOE轨道数据
星历时间 2026-06-12T02:17:48+0800
1天前
查看轨道信息
2026-06-12T15:00:00+0800
11小时前
查看轨道信息
半长轴 14444.035km 14444.033km
偏心率 0.0005074 0.0005063
轨道倾角 0.043° 0.043°
近地点辐角 84.833° 85.635°
升交点赤经 346.134° 345.875°
平近点角 289.091° 161.813°
近地点 8058.569km 8058.582km
远地点 8073.227km 8073.21km
周期 287.934分钟 287.934分钟
每日圈数 5.001151 5.001152
详细信息
平衡模式:
三轴稳定
覆盖范围:
全球
运营商:
欧洲卫星公司
运营商所在国:
卢森堡
制造商(研发单位):
阿莱尼亚宇航公司
制造商所在国:
意大利
使用方式:
暂无
卫星简介
O3b卫星星座分为O3b FM卫星星座和O3b mPOWER卫星星座,前者是由阿莱尼亚宇航公司制造的第一代O3b卫星星座,后者是由波音公司制造的第二代O3b卫星星座。O3b卫星初始星座运行于赤道圆轨道,轨道高度8062公里,能够覆盖全球南北纬45°之间所有地方,在南、北纬45°~62°范围内也能提供一定的服务。该卫星仍在工作。
2D轨道图
3D轨道图
轨道高度分析图
轨道倾角分析图
轨道综合分析图
查看轨道综合分析图